"read_dt","SO2 (ppb)","flags","PMT voltage (V)","lamp voltage (V)","lamp intensity (Hz)","internal temp (C)","react chamber temp (C)","sample flow (l/min)","pres (mmHg)","SO2 bkg (ppb)","SO2 coefficient"
2014-06-14 00:00:00,1899E-3,5C000000,-0724,0842,12070,028.5,045.5,0.481,726.3,01.19,0.508
2014-06-14 00:01:00,1818E-3,5C000000,-0724,0842,12123,028.5,045.5,0.481,726.2,01.19,0.508
2014-06-14 00:02:00,1854E-3,5C000000,-0724,0841,12184,028.4,045.5,0.481,726.2,01.19,0.508
2014-06-14 00:03:00,1809E-3,5C000000,-0724,0841,12071,028.5,045.5,0.481,726.0,01.19,0.508
2014-06-14 00:04:00,1912E-3,5C000000,-0724,0840,11786,028.5,045.5,0.481,726.2,01.19,0.508
2014-06-14 00:05:00,1832E-3,5C000000,-0724,0840,12079,028.5,045.5,0.481,726.2,01.19,0.508
2014-06-14 00:06:00,1871E-3,5C000000,-0724,0842,12295,028.5,045.5,0.481,726.2,01.19,0.508
2014-06-14 00:07:00,1933E-3,5C000000,-0724,0841,12225,028.5,045.5,0.481,726.2,01.19,0.508
2014-06-14 00:08:00,1987E-3,5C000000,-0724,0841,12120,028.5,045.5,0.481,726.1,01.19,0.508
2014-06-14 00:09:00,1778E-3,5C000000,-0724,0841,12090,028.5,045.5,0.481,726.1,01.19,0.508
2014-06-14 00:10:00,1759E-3,5C000000,-0724,0841,12091,028.5,045.5,0.481,726.0,01.19,0.508
2014-06-14 00:11:00,1992E-3,5C000000,-0724,0840,11922,028.5,045.5,0.481,725.9,01.19,0.508
2014-06-14 00:12:00,1955E-3,5C000000,-0724,0841,12005,028.5,045.5,0.481,726.1,01.19,0.508
2014-06-14 00:13:00,1801E-3,5C000000,-0724,0841,11967,028.5,045.5,0.481,725.9,01.19,0.508
2014-06-14 00:14:00,1890E-3,5C000000,-0724,0841,11964,028.5,045.5,0.481,726.0,01.19,0.508
2014-06-14 00:15:00,1760E-3,5C000000,-0724,0840,12014,028.5,045.5,0.481,726.0,01.19,0.508
2014-06-14 00:16:00,1955E-3,5C000000,-0724,0841,12019,028.5,045.5,0.481,726.1,01.19,0.508
2014-06-14 00:17:00,1798E-3,5C000000,-0724,0840,11934,028.5,045.5,0.481,726.0,01.19,0.508
2014-06-14 00:18:00,1855E-3,5C000000,-0724,0841,11959,028.5,045.5,0.481,726.1,01.19,0.508
2014-06-14 00:19:00,1946E-3,5C000000,-0724,0841,12112,028.5,045.5,0.481,726.0,01.19,0.508
2014-06-14 00:20:00,1909E-3,5C000000,-0724,0840,12112,028.5,045.5,0.480,725.9,01.19,0.508
2014-06-14 00:21:00,1934E-3,5C000000,-0724,0841,12087,028.5,045.5,0.481,726.2,01.19,0.508
2014-06-14 00:22:00,1797E-3,5C000000,-0724,0841,12051,028.5,045.5,0.481,726.3,01.19,0.508
2014-06-14 00:23:00,1852E-3,5C000000,-0724,0840,11959,028.5,045.5,0.480,726.0,01.19,0.508
2014-06-14 00:24:00,1917E-3,5C000000,-0724,0841,12277,028.6,045.5,0.481,726.2,01.19,0.508
2014-06-14 00:25:00,1834E-3,5C000000,-0724,0841,11940,028.6,045.5,0.481,726.2,01.19,0.508
2014-06-14 00:26:00,1853E-3,5C000000,-0724,0841,12249,028.6,045.5,0.481,726.2,01.19,0.508
2014-06-14 00:27:00,1836E-3,5C000000,-0724,0842,12211,028.6,045.5,0.481,726.2,01.19,0.508
2014-06-14 00:28:00,1817E-3,5C000000,-0724,0840,12178,028.6,045.5,0.480,726.1,01.19,0.508
2014-06-14 00:29:00,1925E-3,5C000000,-0724,0840,11924,028.6,045.5,0.480,726.1,01.19,0.508
2014-06-14 00:30:00,1900E-3,5C000000,-0724,0842,11827,028.6,045.5,0.480,726.1,01.19,0.508
2014-06-14 00:31:00,2025E-3,5C000000,-0724,0841,11954,028.7,045.5,0.480,726.2,01.19,0.508
2014-06-14 00:32:00,1890E-3,5C000000,-0724,0842,12018,028.7,045.5,0.481,726.2,01.19,0.508
2014-06-14 00:33:00,1920E-3,5C000000,-0724,0841,12065,028.7,045.5,0.480,726.2,01.19,0.508
2014-06-14 00:34:00,1848E-3,5C000000,-0724,0842,12125,028.7,045.5,0.480,725.9,01.19,0.508
2014-06-14 00:35:00,1830E-3,5C000000,-0724,0841,12086,028.7,045.5,0.481,726.1,01.19,0.508
2014-06-14 00:36:00,1820E-3,5C000000,-0724,0842,11984,028.7,045.5,0.480,726.1,01.19,0.508
2014-06-14 00:37:00,1716E-3,5C000000,-0724,0841,12054,028.7,045.5,0.480,726.1,01.19,0.508
2014-06-14 00:38:00,1853E-3,5C000000,-0724,0842,12014,028.7,045.5,0.480,726.2,01.19,0.508
2014-06-14 00:39:00,1834E-3,5C000000,-0724,0841,12076,028.7,045.5,0.481,726.1,01.19,0.508
2014-06-14 00:40:00,1871E-3,5C000000,-0724,0841,12257,028.8,045.5,0.480,726.0,01.19,0.508
2014-06-14 00:41:00,1829E-3,5C000000,-0724,0842,11905,028.8,045.5,0.480,726.2,01.19,0.508
2014-06-14 00:42:00,1819E-3,5C000000,-0724,0841,12124,028.8,045.5,0.480,725.9,01.19,0.508
2014-06-14 00:43:00,1942E-3,5C000000,-0724,0841,12080,028.8,045.5,0.480,726.1,01.19,0.508
2014-06-14 00:44:00,1975E-3,5C000000,-0724,0841,11978,028.8,045.5,0.480,726.0,01.19,0.508
2014-06-14 00:45:00,1798E-3,5C000000,-0724,0841,11963,028.8,045.5,0.480,726.4,01.19,0.508
2014-06-14 00:46:00,1794E-3,5C000000,-0724,0842,12084,028.8,045.5,0.480,726.2,01.19,0.508
2014-06-14 00:47:00,1752E-3,5C000000,-0724,0841,12052,028.9,045.5,0.480,726.0,01.19,0.508
2014-06-14 00:48:00,2038E-3,5C000000,-0724,0842,12090,028.9,045.5,0.480,726.2,01.19,0.508
2014-06-14 00:49:00,1876E-3,5C000000,-0724,0842,12116,028.9,045.5,0.480,726.3,01.19,0.508
2014-06-14 00:50:00,1928E-3,5C000000,-0724,0841,12008,028.9,045.5,0.480,726.3,01.19,0.508
2014-06-14 00:51:00,1960E-3,5C000000,-0724,0841,12146,028.9,045.5,0.480,726.4,01.19,0.508
2014-06-14 00:52:00,1909E-3,5C000000,-0724,0842,12163,028.9,045.5,0.480,726.3,01.19,0.508
2014-06-14 00:53:00,1911E-3,5C000000,-0724,0841,11868,028.9,045.5,0.480,726.3,01.19,0.508
2014-06-14 00:54:00,1863E-3,5C000000,-0724,0841,12081,028.9,045.5,0.480,726.3,01.19,0.508
2014-06-14 00:55:00,1871E-3,5C000000,-0724,0841,11961,028.9,045.5,0.480,726.4,01.19,0.508
2014-06-14 00:56:00,1847E-3,5C000000,-0724,0841,11974,029.0,045.5,0.480,726.4,01.19,0.508
2014-06-14 00:57:00,1888E-3,5C000000,-0724,0842,12009,029.0,045.5,0.480,726.1,01.19,0.508
2014-06-14 00:58:00,1873E-3,5C000000,-0724,0841,12260,029.0,045.5,0.479,726.3,01.19,0.508
2014-06-14 00:59:00,1941E-3,5C000000,-0724,0840,11985,029.0,045.5,0.480,726.3,01.19,0.508
2014-06-14 01:00:00,1842E-3,5C000000,-0724,0842,11929,029.0,045.5,0.479,726.2,01.19,0.508
2014-06-14 01:01:00,1746E-3,5C000000,-0724,0840,12183,029.0,045.5,0.479,726.3,01.19,0.508
2014-06-14 01:02:00,1848E-3,5C000000,-0724,0841,12083,029.0,045.5,0.479,726.2,01.19,0.508
2014-06-14 01:03:00,1910E-3,5C000000,-0724,0842,12096,029.1,045.5,0.479,726.1,01.19,0.508
2014-06-14 01:04:00,1817E-3,5C000000,-0724,0842,12199,029.1,045.5,0.479,726.1,01.19,0.508
2014-06-14 01:05:00,1901E-3,5C000000,-0724,0842,12022,029.1,045.5,0.479,726.2,01.19,0.508
2014-06-14 01:06:00,1788E-3,5C000000,-0724,0841,12079,029.1,045.5,0.479,725.9,01.19,0.508
2014-06-14 01:07:00,1994E-3,5C000000,-0724,0840,12133,029.1,045.5,0.479,725.7,01.19,0.508
2014-06-14 01:08:00,1816E-3,5C000000,-0724,0840,12215,029.1,045.5,0.479,725.9,01.19,0.508
2014-06-14 01:09:00,1970E-3,5C000000,-0724,0841,12133,029.1,045.5,0.480,726.2,01.19,0.508
2014-06-14 01:10:00,1783E-3,5C000000,-0724,0841,12027,029.2,045.5,0.480,726.0,01.19,0.508
2014-06-14 01:11:00,1973E-3,5C000000,-0724,0840,11996,029.2,045.5,0.480,726.1,01.19,0.508
2014-06-14 01:12:00,1869E-3,5C000000,-0724,0841,12062,029.2,045.5,0.480,726.3,01.19,0.508
2014-06-14 01:13:00,1832E-3,5C000000,-0724,0841,12081,029.2,045.5,0.480,726.2,01.19,0.508
2014-06-14 01:14:00,1833E-3,5C000000,-0724,0841,11881,029.2,045.5,0.480,726.2,01.19,0.508
2014-06-14 01:15:00,1893E-3,5C000000,-0724,0841,12178,029.2,045.5,0.480,726.3,01.19,0.508
2014-06-14 01:16:00,1763E-3,5C000000,-0724,0840,12262,029.2,045.5,0.480,726.1,01.19,0.508
2014-06-14 01:17:00,1875E-3,5C000000,-0724,0842,12079,029.2,045.5,0.479,726.0,01.19,0.508
2014-06-14 01:18:00,1707E-3,5C000000,-0724,0842,12134,029.3,045.5,0.480,726.2,01.19,0.508
2014-06-14 01:19:00,1951E-3,5C000000,-0724,0841,12153,029.3,045.5,0.479,726.0,01.19,0.508
2014-06-14 01:20:00,1822E-3,5C000000,-0724,0842,12189,029.3,045.5,0.479,726.0,01.19,0.508
2014-06-14 01:21:00,1939E-3,5C000000,-0724,0842,12089,029.3,045.5,0.479,726.1,01.19,0.508
2014-06-14 01:22:00,1823E-3,5C000000,-0724,0840,12126,029.3,045.5,0.479,726.0,01.19,0.508
2014-06-14 01:23:00,1943E-3,5C000000,-0724,0841,12171,029.3,045.5,0.479,726.2,01.19,0.508
2014-06-14 01:24:00,1775E-3,5C000000,-0724,0842,11914,029.4,045.5,0.479,726.1,01.19,0.508
2014-06-14 01:25:00,1998E-3,5C000000,-0724,0842,11878,029.4,045.5,0.480,725.8,01.19,0.508
2014-06-14 01:26:00,1747E-3,5C000000,-0724,0841,12172,029.4,045.5,0.480,726.2,01.19,0.508
2014-06-14 01:27:00,1840E-3,5C000000,-0724,0841,12129,029.4,045.6,0.479,725.9,01.19,0.508
2014-06-14 01:28:00,1819E-3,5C000000,-0724,0841,12206,029.4,045.6,0.479,726.1,01.19,0.508
2014-06-14 01:29:00,1904E-3,5C000000,-0724,0842,12067,029.4,045.5,0.479,726.0,01.19,0.508
2014-06-14 01:30:00,1923E-3,5C000000,-0724,0841,11953,029.4,045.5,0.479,726.1,01.19,0.508
2014-06-14 01:31:00,1962E-3,5C000000,-0724,0841,12158,029.4,045.5,0.479,726.0,01.19,0.508
2014-06-14 01:32:00,1994E-3,5C000000,-0724,0841,12213,029.4,045.5,0.479,726.0,01.19,0.508
2014-06-14 01:33:00,1830E-3,5C000000,-0724,0841,12158,029.4,045.5,0.479,726.0,01.19,0.508
2014-06-14 01:34:00,1832E-3,5C000000,-0724,0841,11895,029.4,045.5,0.479,726.1,01.19,0.508
2014-06-14 01:35:00,1904E-3,5C000000,-0724,0841,11938,029.4,045.5,0.479,726.2,01.19,0.508
2014-06-14 01:36:00,1812E-3,5C000000,-0724,0841,12121,029.4,045.5,0.479,726.1,01.19,0.508
2014-06-14 01:37:00,1868E-3,5C000000,-0724,0841,11916,029.5,045.5,0.479,726.3,01.19,0.508
2014-06-14 01:38:00,1813E-3,5C000000,-0724,0842,12259,029.5,045.6,0.479,726.1,01.19,0.508
2014-06-14 01:39:00,1750E-3,5C000000,-0724,0841,12055,029.5,045.6,0.479,726.2,01.19,0.508
2014-06-14 01:40:00,1795E-3,5C000000,-0724,0842,12145,029.5,045.5,0.479,726.4,01.19,0.508
2014-06-14 01:41:00,1890E-3,5C000000,-0724,0841,11954,029.5,045.5,0.479,726.2,01.19,0.508
2014-06-14 01:42:00,1876E-3,5C000000,-0724,0842,11763,029.5,045.5,0.479,726.2,01.19,0.508
2014-06-14 01:43:00,1839E-3,5C000000,-0724,0841,12209,029.5,045.5,0.479,726.2,01.19,0.508
2014-06-14 01:44:00,1930E-3,5C000000,-0724,0842,12126,029.5,045.6,0.479,726.2,01.19,0.508
2014-06-14 01:45:00,1867E-3,5C000000,-0724,0842,12157,029.5,045.6,0.479,726.3,01.19,0.508
2014-06-14 01:46:00,1911E-3,5C000000,-0724,0841,12177,029.5,045.6,0.479,726.2,01.19,0.508
2014-06-14 01:47:00,1791E-3,5C000000,-0724,0843,12210,029.5,045.5,0.479,726.4,01.19,0.508
2014-06-14 01:48:00,1983E-3,5C000000,-0724,0841,12148,029.5,045.5,0.479,726.4,01.19,0.508
2014-06-14 01:49:00,1856E-3,5C000000,-0724,0841,12149,029.5,045.5,0.479,726.5,01.19,0.508
2014-06-14 01:50:00,1902E-3,5C000000,-0724,0841,11987,029.5,045.5,0.479,726.4,01.19,0.508
2014-06-14 01:51:00,1885E-3,5C000000,-0724,0842,11992,029.5,045.5,0.479,726.2,01.19,0.508
2014-06-14 01:52:00,1901E-3,5C000000,-0724,0841,12034,029.5,045.5,0.479,726.4,01.19,0.508
2014-06-14 01:53:00,1870E-3,5C000000,-0724,0841,12007,029.6,045.5,0.479,726.2,01.19,0.508
2014-06-14 01:54:00,1837E-3,5C000000,-0724,0842,12069,029.6,045.5,0.479,726.3,01.19,0.508
2014-06-14 01:55:00,1927E-3,5C000000,-0724,0842,12074,029.5,045.5,0.479,726.6,01.19,0.508
2014-06-14 01:56:00,1898E-3,5C000000,-0724,0841,12128,029.6,045.5,0.479,726.5,01.19,0.508
2014-06-14 01:57:00,1854E-3,5C000000,-0724,0842,12208,029.6,045.6,0.479,726.7,01.19,0.508
2014-06-14 01:58:00,1872E-3,5C000000,-0724,0841,12215,029.6,045.5,0.479,726.7,01.19,0.508
2014-06-14 01:59:00,2033E-3,5C000000,-0724,0842,12047,029.6,045.5,0.479,726.3,01.19,0.508
2014-06-14 02:00:00,1835E-3,5C000000,-0724,0842,11954,029.6,045.6,0.479,726.5,01.19,0.508
2014-06-14 02:01:00,1710E-3,5C000000,-0724,0841,12037,029.6,045.6,0.479,726.2,01.19,0.508
2014-06-14 02:02:00,1805E-3,5C000000,-0724,0841,12109,029.6,045.6,0.479,726.5,01.19,0.508
2014-06-14 02:03:00,1742E-3,5C000000,-0724,0841,12040,029.6,045.5,0.479,726.5,01.19,0.508
2014-06-14 02:04:00,1824E-3,5C000000,-0724,0841,12056,029.6,045.5,0.479,726.7,01.19,0.508
2014-06-14 02:05:00,1810E-3,5C000000,-0724,0841,11948,029.6,045.5,0.479,726.5,01.19,0.508
2014-06-14 02:06:00,1810E-3,5C000000,-0724,0843,12041,029.6,045.5,0.479,726.6,01.19,0.508
2014-06-14 02:07:00,1787E-3,5C000000,-0724,0841,12146,029.6,045.6,0.479,726.5,01.19,0.508
2014-06-14 02:08:00,1882E-3,5C000000,-0724,0841,11960,029.6,045.5,0.479,726.6,01.19,0.508
2014-06-14 02:09:00,1845E-3,5C000000,-0724,0841,12116,029.6,045.6,0.479,726.7,01.19,0.508
2014-06-14 02:10:00,1917E-3,5C000000,-0724,0840,11940,029.6,045.6,0.479,726.8,01.19,0.508
2014-06-14 02:11:00,1861E-3,5C000000,-0724,0841,12079,029.6,045.5,0.479,726.8,01.19,0.508
2014-06-14 02:12:00,2011E-3,5C000000,-0724,0841,12114,029.6,045.5,0.479,726.9,01.19,0.508
2014-06-14 02:13:00,1924E-3,5C000000,-0724,0842,12133,029.6,045.6,0.479,726.8,01.19,0.508
2014-06-14 02:14:00,1874E-3,5C000000,-0724,0841,12201,029.6,045.6,0.479,726.7,01.19,0.508
2014-06-14 02:15:00,1930E-3,5C000000,-0724,0841,11884,029.6,045.5,0.479,726.6,01.19,0.508
2014-06-14 02:16:00,1682E-3,5C000000,-0724,0841,12160,029.6,045.5,0.479,726.5,01.19,0.508
2014-06-14 02:17:00,1863E-3,5C000000,-0724,0841,12014,029.6,045.5,0.480,727.1,01.19,0.508
2014-06-14 02:18:00,1856E-3,5C000000,-0724,0841,12029,029.6,045.5,0.479,727.1,01.19,0.508
2014-06-14 02:19:00,1842E-3,5C000000,-0724,0842,12117,029.6,045.5,0.479,726.8,01.19,0.508
2014-06-14 02:20:00,1738E-3,5C000000,-0724,0840,11886,029.6,045.5,0.479,726.6,01.19,0.508
2014-06-14 02:21:00,1855E-3,5C000000,-0724,0841,12072,029.6,045.5,0.479,726.5,01.19,0.508
2014-06-14 02:22:00,1858E-3,5C000000,-0724,0841,12022,029.6,045.6,0.479,726.9,01.19,0.508
2014-06-14 02:23:00,1792E-3,5C000000,-0724,0842,12186,029.6,045.5,0.479,726.6,01.19,0.508
2014-06-14 02:24:00,1849E-3,5C000000,-0724,0842,12319,029.6,045.5,0.479,726.8,01.19,0.508
2014-06-14 02:25:00,1852E-3,5C000000,-0724,0842,12154,029.6,045.6,0.479,726.8,01.19,0.508
2014-06-14 02:26:00,1952E-3,5C000000,-0724,0841,12108,029.6,045.6,0.479,726.8,01.19,0.508
2014-06-14 02:27:00,1699E-3,5C000000,-0724,0841,12059,029.6,045.6,0.479,726.9,01.19,0.508
2014-06-14 02:28:00,1837E-3,5C000000,-0724,0841,12107,029.6,045.6,0.479,726.8,01.19,0.508
2014-06-14 02:29:00,1738E-3,5C000000,-0724,0841,12102,029.6,045.5,0.479,726.5,01.19,0.508
2014-06-14 02:30:00,1901E-3,5C000000,-0724,0842,12124,029.6,045.6,0.479,726.6,01.19,0.508
2014-06-14 02:31:00,1825E-3,5C000000,-0724,0841,11989,029.6,045.5,0.479,726.5,01.19,0.508
2014-06-14 02:32:00,1931E-3,5C000000,-0724,0841,12196,029.6,045.5,0.479,726.5,01.19,0.508
2014-06-14 02:33:00,1954E-3,5C000000,-0724,0841,11643,029.6,045.5,0.479,726.4,01.19,0.508
2014-06-14 02:34:00,1971E-3,5C000000,-0724,0841,11774,029.6,045.5,0.479,726.4,01.19,0.508
2014-06-14 02:35:00,1802E-3,5C000000,-0724,0841,12050,029.6,045.6,0.479,726.7,01.19,0.508
2014-06-14 02:36:00,1865E-3,5C000000,-0724,0841,12065,029.6,045.6,0.479,726.6,01.19,0.508
2014-06-14 02:37:00,1809E-3,5C000000,-0724,0841,12181,029.6,045.6,0.479,726.6,01.19,0.508
2014-06-14 02:38:00,1755E-3,5C000000,-0724,0843,12260,029.6,045.5,0.479,726.2,01.19,0.508
2014-06-14 02:39:00,1788E-3,5C000000,-0724,0841,12003,029.6,045.5,0.479,726.9,01.19,0.508
2014-06-14 02:40:00,1917E-3,5C000000,-0724,0841,12031,029.6,045.5,0.479,726.7,01.19,0.508
2014-06-14 02:41:00,1802E-3,5C000000,-0724,0841,12149,029.6,045.5,0.479,726.7,01.19,0.508
2014-06-14 02:42:00,1913E-3,5C000000,-0724,0840,12155,029.6,045.6,0.479,726.5,01.19,0.508
2014-06-14 02:43:00,1924E-3,5C000000,-0724,0842,12025,029.6,045.5,0.479,726.6,01.19,0.508
2014-06-14 02:44:00,1793E-3,5C000000,-0724,0840,11929,029.6,045.5,0.479,726.9,01.19,0.508
2014-06-14 02:45:00,1925E-3,5C000000,-0724,0842,11985,029.6,045.6,0.479,726.7,01.19,0.508
2014-06-14 02:46:00,1845E-3,5C000000,-0724,0842,11938,029.6,045.5,0.479,727.0,01.19,0.508
2014-06-14 02:47:00,2066E-3,5C000000,-0724,0841,12101,029.6,045.5,0.479,727.2,01.19,0.508
2014-06-14 02:48:00,1994E-3,5C000000,-0724,0841,11887,029.6,045.5,0.479,727.1,01.19,0.508
2014-06-14 02:49:00,1890E-3,5C000000,-0724,0842,12128,029.6,045.5,0.479,727.2,01.19,0.508
2014-06-14 02:50:00,1879E-3,5C000000,-0724,0842,12292,029.6,045.5,0.479,727.1,01.19,0.508
2014-06-14 02:51:00,1916E-3,5C000000,-0724,0841,12169,029.6,045.5,0.480,727.3,01.19,0.508
2014-06-14 02:52:00,1925E-3,5C000000,-0724,0842,11940,029.6,045.6,0.479,727.1,01.19,0.508
2014-06-14 02:53:00,1867E-3,5C000000,-0724,0842,12046,029.6,045.5,0.479,727.1,01.19,0.508
2014-06-14 02:54:00,1934E-3,5C000000,-0724,0842,11800,029.6,045.5,0.479,727.1,01.19,0.508
2014-06-14 02:55:00,1790E-3,5C000000,-0724,0841,11901,029.6,045.5,0.479,727.1,01.19,0.508
2014-06-14 02:56:00,1809E-3,5C000000,-0724,0841,12115,029.6,045.5,0.479,727.1,01.19,0.508
2014-06-14 02:57:00,1970E-3,5C000000,-0724,0842,12188,029.6,045.6,0.479,727.4,01.19,0.508
2014-06-14 02:58:00,1987E-3,5C000000,-0724,0842,12096,029.6,045.6,0.479,727.0,01.19,0.508
2014-06-14 02:59:00,1993E-3,5C000000,-0724,0842,12209,029.6,045.6,0.480,727.5,01.19,0.508
2014-06-14 03:00:00,1805E-3,5C000000,-0724,0842,11975,029.6,045.5,0.479,727.5,01.19,0.508
2014-06-14 03:01:00,1779E-3,5C000000,-0724,0841,12159,029.6,045.5,0.479,727.2,01.19,0.508
2014-06-14 03:02:00,1908E-3,5C000000,-0724,0841,11976,029.6,045.5,0.480,727.4,01.19,0.508
2014-06-14 03:03:00,1798E-3,5C000000,-0724,0841,12203,029.6,045.5,0.479,727.2,01.19,0.508
2014-06-14 03:04:00,1700E-3,5C000000,-0724,0841,12059,029.6,045.5,0.480,727.4,01.19,0.508
2014-06-14 03:05:00,1783E-3,5C000000,-0724,0842,12180,029.6,045.5,0.479,727.6,01.19,0.508
2014-06-14 03:06:00,1868E-3,5C000000,-0724,0842,12210,029.6,045.6,0.479,727.7,01.19,0.508
2014-06-14 03:07:00,1763E-3,5C000000,-0724,0841,12042,029.6,045.5,0.480,728.1,01.19,0.508
2014-06-14 03:08:00,1706E-3,5C000000,-0724,0841,12020,029.6,045.5,0.479,727.6,01.19,0.508
2014-06-14 03:09:00,1858E-3,5C000000,-0724,0841,12141,029.6,045.6,0.480,727.9,01.19,0.508
2014-06-14 03:10:00,1954E-3,5C000000,-0724,0842,12088,029.6,045.5,0.480,727.7,01.19,0.508
2014-06-14 03:11:00,1804E-3,5C000000,-0724,0842,12015,029.6,045.5,0.479,727.8,01.19,0.508
2014-06-14 03:12:00,1903E-3,5C000000,-0724,0841,11964,029.6,045.5,0.480,727.3,01.19,0.508
2014-06-14 03:13:00,1829E-3,5C000000,-0724,0842,11810,029.6,045.5,0.479,727.8,01.19,0.508
2014-06-14 03:14:00,1972E-3,5C000000,-0724,0841,11924,029.6,045.5,0.479,727.6,01.19,0.508
2014-06-14 03:15:00,1842E-3,5C000000,-0724,0842,12038,029.5,045.6,0.480,727.5,01.19,0.508
2014-06-14 03:16:00,1776E-3,5C000000,-0724,0842,12049,029.5,045.5,0.479,727.4,01.19,0.508
2014-06-14 03:17:00,1900E-3,5C000000,-0724,0841,11996,029.6,045.5,0.480,727.7,01.19,0.508
2014-06-14 03:18:00,1967E-3,5C000000,-0724,0842,11847,029.5,045.6,0.480,727.7,01.19,0.508
2014-06-14 03:19:00,1821E-3,5C000000,-0724,0842,12278,029.5,045.6,0.479,727.5,01.19,0.508
2014-06-14 03:20:00,1657E-3,5C000000,-0724,0840,12007,029.5,045.5,0.480,727.7,01.19,0.508
2014-06-14 03:21:00,1785E-3,5C000000,-0724,0841,12071,029.5,045.5,0.479,727.8,01.19,0.508
2014-06-14 03:22:00,1781E-3,5C000000,-0724,0842,12081,029.5,045.5,0.480,727.5,01.19,0.508
2014-06-14 03:23:00,1982E-3,5C000000,-0724,0842,12229,029.5,045.5,0.480,727.7,01.19,0.508
2014-06-14 03:24:00,1711E-3,5C000000,-0724,0841,12209,029.5,045.5,0.479,727.6,01.19,0.508
2014-06-14 03:25:00,1782E-3,5C000000,-0724,0841,11983,029.5,045.6,0.480,727.8,01.19,0.508
2014-06-14 03:26:00,1817E-3,5C000000,-0724,0841,11979,029.5,045.6,0.479,727.8,01.19,0.508
2014-06-14 03:27:00,1798E-3,5C000000,-0724,0840,12035,029.5,045.5,0.480,728.3,01.19,0.508
2014-06-14 03:28:00,1880E-3,5C000000,-0724,0840,12201,029.5,045.5,0.480,728.4,01.19,0.508
2014-06-14 03:29:00,1789E-3,5C000000,-0724,0842,12163,029.5,045.5,0.479,728.3,01.19,0.508
2014-06-14 03:30:00,1827E-3,5C000000,-0724,0841,12133,029.5,045.6,0.480,728.3,01.19,0.508
2014-06-14 03:31:00,1813E-3,5C000000,-0724,0840,12045,029.5,045.6,0.480,728.1,01.19,0.508
2014-06-14 03:32:00,1847E-3,5C000000,-0724,0840,11967,029.5,045.5,0.479,728.2,01.19,0.508
2014-06-14 03:33:00,1882E-3,5C000000,-0724,0840,12115,029.6,045.5,0.480,728.1,01.19,0.508
2014-06-14 03:34:00,2030E-3,5C000000,-0724,0841,12006,029.6,045.5,0.479,728.4,01.19,0.508
2014-06-14 03:35:00,2015E-3,5C000000,-0724,0841,12146,029.5,045.5,0.480,728.2,01.19,0.508
2014-06-14 03:36:00,1908E-3,5C000000,-0724,0841,12085,029.6,045.5,0.480,728.0,01.19,0.508
2014-06-14 03:37:00,1897E-3,5C000000,-0724,0841,12035,029.6,045.6,0.479,728.4,01.19,0.508
2014-06-14 03:38:00,1734E-3,5C000000,-0724,0841,12060,029.5,045.6,0.480,728.1,01.19,0.508
2014-06-14 03:39:00,1779E-3,5C000000,-0724,0842,12072,029.6,045.6,0.479,728.1,01.19,0.508
2014-06-14 03:40:00,1721E-3,5C000000,-0724,0841,12228,029.5,045.5,0.480,728.1,01.19,0.508
2014-06-14 03:41:00,1886E-3,5C000000,-0724,0841,12120,029.6,045.5,0.480,728.1,01.19,0.508
2014-06-14 03:42:00,1885E-3,5C000000,-0724,0841,12133,029.6,045.5,0.480,728.2,01.19,0.508
2014-06-14 03:43:00,1782E-3,5C000000,-0724,0842,12102,029.6,045.5,0.480,728.3,01.19,0.508
2014-06-14 03:44:00,1915E-3,5C000000,-0724,0842,12202,029.6,045.6,0.479,728.0,01.19,0.508
2014-06-14 03:45:00,1895E-3,5C000000,-0724,0841,12170,029.6,045.5,0.480,728.1,01.19,0.508
2014-06-14 03:46:00,1834E-3,5C000000,-0724,0841,12062,029.6,045.5,0.480,728.4,01.19,0.508
2014-06-14 03:47:00,1839E-3,5C000000,-0724,0841,12015,029.6,045.5,0.480,728.2,01.19,0.508
2014-06-14 03:48:00,1959E-3,5C000000,-0724,0840,11977,029.6,045.5,0.480,728.2,01.19,0.508
2014-06-14 03:49:00,1949E-3,5C000000,-0724,0840,11923,029.6,045.5,0.479,728.1,01.19,0.508
2014-06-14 03:50:00,1801E-3,5C000000,-0724,0841,12141,029.6,045.5,0.480,728.3,01.19,0.508
2014-06-14 03:51:00,1938E-3,5C000000,-0724,0842,12199,029.6,045.5,0.479,728.1,01.19,0.508
2014-06-14 03:52:00,1910E-3,5C000000,-0724,0841,12188,029.6,045.5,0.480,728.1,01.19,0.508
2014-06-14 03:53:00,1863E-3,5C000000,-0724,0842,12154,029.6,045.5,0.479,728.3,01.19,0.508
2014-06-14 03:54:00,1763E-3,5C000000,-0724,0840,12128,029.6,045.5,0.480,728.2,01.19,0.508
2014-06-14 03:55:00,1904E-3,5C000000,-0724,0841,12007,029.6,045.5,0.480,728.5,01.19,0.508
2014-06-14 03:56:00,1822E-3,5C000000,-0724,0841,12118,029.6,045.6,0.479,728.3,01.19,0.508
2014-06-14 03:57:00,1810E-3,5C000000,-0724,0841,12190,029.6,045.5,0.480,728.5,01.19,0.508
2014-06-14 03:58:00,1808E-3,5C000000,-0724,0842,12047,029.6,045.6,0.479,728.4,01.19,0.508
2014-06-14 03:59:00,1801E-3,5C000000,-0724,0840,11982,029.6,045.5,0.480,728.4,01.19,0.508
2014-06-14 04:00:00,1728E-3,5C000000,-0724,0841,12250,029.6,045.5,0.479,728.6,01.19,0.508
2014-06-14 04:01:00,1673E-3,5C000000,-0724,0841,12266,029.6,045.5,0.480,728.5,01.19,0.508
2014-06-14 04:02:00,1877E-3,5C000000,-0724,0841,12208,029.6,045.5,0.479,728.5,01.19,0.508
2014-06-14 04:03:00,1780E-3,5C000000,-0724,0841,12110,029.6,045.5,0.480,728.3,01.19,0.508
2014-06-14 04:04:00,1954E-3,5C000000,-0724,0840,11856,029.6,045.5,0.480,728.6,01.19,0.508
2014-06-14 04:05:00,1755E-3,5C000000,-0724,0840,12106,029.6,045.5,0.479,728.4,01.19,0.508
2014-06-14 04:06:00,1777E-3,5C000000,-0724,0841,12133,029.6,045.5,0.480,728.3,01.19,0.508
2014-06-14 04:07:00,1814E-3,5C000000,-0724,0841,12161,029.6,045.6,0.479,728.5,01.19,0.508
2014-06-14 04:08:00,1880E-3,5C000000,-0724,0841,12042,029.6,045.6,0.480,728.4,01.19,0.508
2014-06-14 04:09:00,1843E-3,5C000000,-0724,0841,12111,029.6,045.6,0.479,728.8,01.19,0.508
2014-06-14 04:10:00,1950E-3,5C000000,-0724,0841,12142,029.6,045.5,0.480,728.9,01.19,0.508
2014-06-14 04:11:00,1890E-3,5C000000,-0724,0841,12185,029.6,045.5,0.480,728.8,01.19,0.508
2014-06-14 04:12:00,1858E-3,5C000000,-0724,0841,11989,029.6,045.5,0.480,728.5,01.19,0.508
2014-06-14 04:13:00,1810E-3,5C000000,-0724,0841,12252,029.6,045.5,0.479,728.5,01.19,0.508
2014-06-14 04:14:00,1879E-3,5C000000,-0724,0839,12024,029.6,045.6,0.480,728.5,01.19,0.508
2014-06-14 04:15:00,1853E-3,5C000000,-0724,0841,12159,029.6,045.5,0.479,728.5,01.19,0.508
2014-06-14 04:16:00,1838E-3,5C000000,-0724,0841,12156,029.6,045.5,0.480,728.4,01.19,0.508
2014-06-14 04:17:00,1807E-3,5C000000,-0724,0840,12131,029.6,045.5,0.479,728.4,01.19,0.508
2014-06-14 04:18:00,1849E-3,5C000000,-0724,0841,12041,029.6,045.5,0.480,728.4,01.19,0.508
2014-06-14 04:19:00,1917E-3,5C000000,-0724,0841,12149,029.6,045.5,0.480,728.7,01.19,0.508
2014-06-14 04:20:00,1754E-3,5C000000,-0724,0841,12048,029.6,045.5,0.479,728.3,01.19,0.508